Ketchikan, AK

4:24 PM AKST on February 20, 2019 (GMT -0900)
Ketchikan International

Weather History for PAKT - January, 2019

Change the Weather History Date:

Wednesday, January 16, 2019

  Actual Average Record
Temperature  
Mean Temperature 32 °F -  
Max Temperature 35 °F 38 °F 58 °F (1981)
Min Temperature 28 °F 28 °F 3 °F (2012)
Degree Days  
Heating Degree Days 34    
Moisture  
Dew Point 30 °F    
Average Humidity 97    
Maximum Humidity 100    
Minimum Humidity 92    
Precipitation  
Precipitation 0.00 in - - ()
Sea Level Pressure  
Sea Level Pressure 29.74 in    
Wind  
Wind Speed 2 mph (WNW)    
Max Wind Speed 6 mph    
Max Gust Speed -    
Visibility 3 miles    
Events Fog    
Averages and records for this station are not official NWS values.
T = Trace of Precipitation, MM = Missing Value Source: NWS Daily Summary

Daily Weather History Graph

Daily Weather History Graph

Search for Another Location

Airport or City:

Astronomy

Jan. 16, 2019 Rise Set
Actual Time 8:03 AM AKST 3:50 PM AKST
Civil Twilight 7:19 AM AKST 4:33 PM AKST
Nautical Twilight 6:33 AM AKST 5:20 PM AKST
Astronomical Twilight 5:49 AM AKST 6:03 PM AKST
Moon 12:16 PM AKST (1/16) 2:52 AM AKST (1/16)
Length of Visible Light 9h 13m
Length of Day
7h 47m
Waxing Gibbous, 76% of the Moon is Illuminated
Jan 16
Waxing Gibbous
Jan 20
Full
Jan 27
Last Quarter
Feb 4
New
Feb 12
First Quarter

Hourly Weather History & Observations

Time (AKST) Temp. Windchill Dew Point Humidity Pressure Visibility Wind Dir Wind Speed Gust Speed Precip Events Conditions
12:00 AM 28.9 °F - 28.9 °F 100% 29.76 in 2.5 mi Calm Calm - N/A   Mostly Cloudy
12:04 AM 28.9 °F - 28.9 °F 100% 29.76 in 0.8 mi Calm Calm - N/A   Mist
12:14 AM 28.9 °F - 28.9 °F 100% 29.76 in 0.2 mi Calm Calm - N/A Fog Light Freezing Fog
12:21 AM 28.9 °F - 28.9 °F 100% 29.76 in 0.5 mi Calm Calm - N/A Fog Light Freezing Fog
12:36 AM 28.9 °F - 28.0 °F 96% 29.76 in 1.2 mi Calm Calm - N/A   Overcast
12:45 AM 28.9 °F - 28.0 °F 96% 29.76 in 0.5 mi Calm Calm - N/A Fog Light Freezing Fog
12:53 AM 28.9 °F - 27.0 °F 92% 29.77 in 0.8 mi Calm Calm - N/A   Mist
1:00 AM 28.9 °F - 28.0 °F 96% 29.76 in 0.8 mi Calm Calm - N/A   Mist
1:08 AM 28.0 °F - 27.0 °F 96% 29.75 in 1.5 mi Calm Calm - N/A   Overcast
1:22 AM 28.9 °F - 28.0 °F 96% 29.75 in 0.8 mi Calm Calm - N/A   Mist
1:53 AM 28.9 °F 25.2 °F 28.0 °F 96% 29.76 in 0.5 mi SE 3.5 mph - N/A Fog Light Freezing Fog
2:07 AM 30.0 °F 26.5 °F 28.9 °F 96% 29.75 in 2.0 mi SE 3.5 mph - N/A   Overcast
2:11 AM 30.0 °F 25.2 °F 28.9 °F 96% 29.75 in 0.8 mi SE 4.6 mph - N/A   Mist
2:20 AM 28.9 °F 25.2 °F 28.9 °F 100% 29.75 in 0.2 mi SSW 3.5 mph - N/A Fog Light Freezing Fog
2:25 AM 30.0 °F - 28.9 °F 96% 29.75 in 1.0 mi Calm Calm - N/A   Mist
2:28 AM 28.9 °F - 28.0 °F 96% 29.75 in 4.0 mi Calm Calm - N/A   Mostly Cloudy
2:38 AM 28.0 °F - 27.0 °F 96% 29.75 in 10.0 mi Calm Calm - N/A   Scattered Clouds
2:42 AM 28.9 °F - 28.0 °F 96% 29.75 in 2.5 mi Calm Calm - N/A   Mostly Cloudy
2:46 AM 28.9 °F - 28.0 °F 96% 29.75 in 0.8 mi Calm Calm - N/A   Mist
2:53 AM 28.9 °F - 28.9 °F 100% 29.76 in 0.8 mi Calm Calm - N/A   Mist
3:14 AM 28.9 °F - 28.0 °F 96% 29.75 in 0.2 mi Calm Calm - N/A Fog Light Freezing Fog
3:22 AM 28.9 °F 25.2 °F 28.0 °F 96% 29.75 in 0.5 mi West 3.5 mph - N/A Fog Light Freezing Fog
3:37 AM 30.0 °F - 28.9 °F 96% 29.75 in 0.2 mi Calm Calm - N/A Fog Light Freezing Fog
3:46 AM 30.0 °F - 30.0 °F 100% 29.75 in 0.2 mi Calm Calm - N/A Fog Light Freezing Fog
3:53 AM 30.0 °F - 28.9 °F 96% 29.75 in 0.2 mi Calm Calm - N/A Fog Light Freezing Fog
4:39 AM 30.0 °F 26.5 °F 30.0 °F 100% 29.74 in 0.5 mi NW 3.5 mph - N/A Fog Light Freezing Fog
4:53 AM 30.0 °F 26.5 °F 30.0 °F 100% 29.74 in 0.5 mi WNW 3.5 mph - N/A Fog Light Freezing Fog
5:01 AM 30.9 °F 27.5 °F 30.0 °F 96% 29.74 in 0.2 mi NW 3.5 mph - N/A Fog Light Freezing Fog
5:53 AM 30.0 °F - 30.0 °F 100% 29.74 in 0.2 mi Calm Calm - N/A Fog Light Freezing Fog
6:09 AM 30.2 °F 26.7 °F 28.4 °F 93% 29.74 in 0.2 mi West 3.5 mph - N/A Fog Light Freezing Fog
6:53 AM 30.2 °F 26.7 °F 28.4 °F 93% 29.75 in 0.5 mi West 3.5 mph - N/A Fog Light Freezing Fog
7:53 AM 30.2 °F 25.4 °F 30.2 °F 100% 29.75 in 0.2 mi NW 4.6 mph - N/A Fog Light Freezing Fog
8:05 AM 30.0 °F 26.5 °F 30.0 °F 100% 29.74 in 0.2 mi WNW 3.5 mph - N/A Fog Light Freezing Fog
8:53 AM 30.9 °F - 30.9 °F 100% 29.75 in 0.2 mi Calm Calm - N/A Fog Light Freezing Fog
9:53 AM 32.0 °F 28.7 °F 30.9 °F 96% 29.76 in 0.2 mi WNW 3.5 mph - N/A Fog Fog
10:33 AM 32.0 °F 27.5 °F 32.0 °F 100% 29.75 in 0.5 mi WNW 4.6 mph - N/A Fog Fog
10:49 AM 32.0 °F 27.5 °F 32.0 °F 100% 29.75 in 0.2 mi WNW 4.6 mph - N/A Fog Fog
10:53 AM 32.0 °F 27.5 °F 32.0 °F 100% 29.75 in 0.2 mi WNW 4.6 mph - N/A Fog Fog
11:03 AM 32.0 °F 28.7 °F 32.0 °F 100% 29.75 in 0.5 mi NW 3.5 mph - N/A Fog Fog
11:42 AM 33.1 °F 30.0 °F 32.0 °F 96% 29.74 in 10.0 mi WNW 3.5 mph - N/A   Mostly Cloudy
11:53 AM 33.8 °F 29.6 °F 32.0 °F 93% 29.75 in 2.0 mi NW 4.6 mph - N/A   Mostly Cloudy
12:12 PM 32.0 °F 26.4 °F 32.0 °F 100% 29.74 in 2.0 mi WNW 5.8 mph - N/A   Mostly Cloudy
12:53 PM 33.8 °F 28.6 °F 33.8 °F 100% 29.73 in 0.2 mi NW 5.8 mph - N/A Fog Fog
1:23 PM 33.1 °F 28.7 °F 33.1 °F 100% 29.72 in 0.5 mi WNW 4.6 mph - N/A Fog Fog
1:26 PM 33.1 °F 28.7 °F 33.1 °F 100% 29.72 in 0.8 mi WNW 4.6 mph - N/A   Mostly Cloudy
1:40 PM 33.8 °F 28.6 °F 33.8 °F 100% 29.72 in 3.0 mi WNW 5.8 mph - N/A   Scattered Clouds
1:53 PM 34.0 °F 29.8 °F 34.0 °F 100% 29.73 in 7.0 mi WNW 4.6 mph - N/A   Scattered Clouds
2:53 PM 35.6 °F 31.7 °F 33.8 °F 93% 29.73 in 10.0 mi WNW 4.6 mph - N/A   Clear
3:53 PM 33.8 °F 28.6 °F 33.8 °F 100% 29.72 in 10.0 mi WNW 5.8 mph - N/A   Clear
4:53 PM 34.0 °F 29.8 °F 33.1 °F 96% 29.70 in 10.0 mi WNW 4.6 mph - N/A   Clear
5:53 PM 33.1 °F - 32.0 °F 96% 29.69 in 10.0 mi Calm Calm - N/A   Clear
6:53 PM 32.0 °F - 30.9 °F 96% 29.69 in 10.0 mi Calm Calm - N/A   Clear
7:53 PM 35.1 °F 32.2 °F 33.1 °F 92% 29.69 in 10.0 mi SE 3.5 mph - N/A   Clear
8:53 PM 30.9 °F - 30.0 °F 96% 29.69 in 10.0 mi Calm Calm - N/A   Clear
9:51 PM 30.2 °F 26.7 °F 28.4 °F 93% 29.67 in 10.0 mi WNW 3.5 mph - N/A   Partly Cloudy
9:53 PM 30.9 °F 27.5 °F 28.9 °F 92% 29.68 in 10.0 mi West 3.5 mph - N/A   Partly Cloudy
10:53 PM 30.0 °F - 28.9 °F 96% 29.66 in 10.0 mi Calm Calm - N/A   Clear
11:53 PM 30.9 °F - 28.9 °F 92% 29.63 in 10.0 mi Calm Calm - N/A   Clear